Weather History for PASI - September, 2013

Change the Weather History Date:

Thursday, September 12, 2013

  Actual Average Record
Temperature  
Mean Temperature 58 °F -  
Max Temperature 63 °F - - ()
Min Temperature 53 °F - - ()
Degree Days  
Heating Degree Days 6    
Growing Degree Days 8 (Base 50)    
Moisture  
Dew Point 55 °F    
Average Humidity 86    
Maximum Humidity 97    
Minimum Humidity 67    
Precipitation  
Precipitation 0.02 in - - ()
Sea Level Pressure  
Sea Level Pressure 30.06 in    
Wind  
Wind Speed 7 mph (NW)    
Max Wind Speed 16 mph    
Max Gust Speed -    
Visibility 9 miles    
Events Rain    
T = Trace of Precipitation, MM = Missing Value Source: NWS Daily Summary

Daily Weather History Graph

Daily Weather History Graph

Search for Another Location

Airport or City:

Trip Planner

Search our weather history database for the weather conditions in past years. The results will help you decide how hot, cold, wet, or windy it might be!

Date:

Astronomy

Sep. 12, 2013 Rise Set
Actual Time 6:26 AM AKDT 7:26 PM AKDT
Civil Twilight 5:47 AM AKDT 8:05 PM AKDT
Nautical Twilight 5:00 AM AKDT 8:53 PM AKDT
Astronomical Twilight 4:07 AM AKDT 9:45 PM AKDT
Moon 3:21 PM AKDT (9/12) 11:11 PM AKDT (9/12)
Length of Visible Light 14h 17m
Length of Day
12h 59m
First Quarter, 51% of the Moon is Illuminated
Sep 12
First Quarter
Sep 19
Full
Sep 26
Last Quarter
Oct 4
New
Oct 11
First Quarter

Hourly Weather History & Observations

Time (AKDT) Temp. Dew Point Humidity Pressure Visibility Wind Dir Wind Speed Gust Speed Precip Events Conditions
12:53 AM 57.9 °F 57.0 °F 97% 30.02 in 10.0 mi Calm Calm - 0.00 in   Mostly Cloudy
1:30 AM 59.0 °F 57.0 °F 93% 30.02 in 10.0 mi NNW 3.5 mph - N/A   Overcast
1:53 AM 59.0 °F 57.0 °F 93% 30.01 in 10.0 mi NNW 3.5 mph - N/A   Overcast
2:53 AM 59.0 °F 57.0 °F 93% 30.02 in 10.0 mi Calm Calm - N/A   Overcast
3:53 AM 59.0 °F 57.0 °F 93% 30.03 in 7.0 mi NW 4.6 mph - N/A   Overcast
4:00 AM 59.0 °F 57.0 °F 93% 30.03 in 7.0 mi NW 6.9 mph - 0.00 in Rain Light Rain
4:09 AM 59.0 °F 57.0 °F 93% 30.03 in 7.0 mi NW 9.2 mph - 0.00 in Rain Light Rain
4:20 AM 59.0 °F 57.0 °F 93% 30.03 in 2.5 mi NNW 6.9 mph - 0.01 in Rain Light Rain
4:43 AM 57.9 °F 57.0 °F 97% 30.03 in 2.5 mi NNW 4.6 mph - 0.02 in Rain Light Rain
4:53 AM 57.9 °F 57.0 °F 97% 30.03 in 3.0 mi NW 5.8 mph - 0.02 in Rain Light Rain
4:57 AM 57.9 °F 57.0 °F 97% 30.03 in 10.0 mi NW 5.8 mph - 0.00 in Rain Light Rain
5:51 AM 59.0 °F 57.2 °F 94% 30.04 in 6.0 mi WNW 9.2 mph - 0.00 in   Overcast
5:53 AM 59.0 °F 57.0 °F 93% 30.04 in 7.0 mi WNW 9.2 mph - 0.00 in   Overcast
6:53 AM 57.9 °F 55.9 °F 93% 30.04 in 10.0 mi NW 16.1 mph - N/A   Mostly Cloudy
7:53 AM 59.0 °F 55.9 °F 90% 30.04 in 10.0 mi NNW 10.4 mph - N/A   Mostly Cloudy
8:02 AM 57.9 °F 55.9 °F 93% 30.04 in 10.0 mi NW 11.5 mph - N/A   Mostly Cloudy
8:53 AM 59.0 °F 55.0 °F 87% 30.04 in 10.0 mi NNW 12.7 mph - N/A   Mostly Cloudy
9:00 AM 59.0 °F 55.0 °F 87% 30.04 in 10.0 mi NNW 12.7 mph - N/A   Mostly Cloudy
9:53 AM 59.0 °F 55.0 °F 87% 30.06 in 10.0 mi NW 10.4 mph - N/A   Mostly Cloudy
10:00 AM 59.0 °F 55.0 °F 87% 30.06 in 10.0 mi NW 10.4 mph - N/A   Mostly Cloudy
10:53 AM 60.1 °F 55.0 °F 83% 30.08 in 10.0 mi WNW 13.8 mph - N/A   Mostly Cloudy
11:27 AM 61.0 °F 55.0 °F 81% 30.07 in 10.0 mi NNW 15.0 mph - N/A   Overcast
11:53 AM 60.1 °F 54.0 °F 80% 30.08 in 10.0 mi NW 15.0 mph - N/A   Mostly Cloudy
12:53 PM 61.0 °F 53.1 °F 75% 30.07 in 10.0 mi NW 11.5 mph - N/A   Mostly Cloudy
1:53 PM 62.1 °F 51.1 °F 67% 30.08 in 10.0 mi NW 10.4 mph - N/A   Mostly Cloudy
2:53 PM 63.0 °F 53.1 °F 70% 30.08 in 10.0 mi WNW 11.5 mph - N/A   Overcast
3:53 PM 61.0 °F 53.1 °F 75% 30.09 in 10.0 mi West 16.1 mph - N/A   Overcast
4:53 PM 60.1 °F 52.0 °F 75% 30.08 in 10.0 mi NW 13.8 mph - N/A   Mostly Cloudy
5:53 PM 60.1 °F 52.0 °F 75% 30.08 in 10.0 mi WNW 11.5 mph - N/A   Mostly Cloudy
6:53 PM 60.1 °F 51.1 °F 72% 30.08 in 10.0 mi NW 15.0 mph - N/A   Scattered Clouds
7:53 PM 59.0 °F 52.0 °F 78% 30.09 in 10.0 mi NW 13.8 mph - N/A   Scattered Clouds
8:53 PM 57.9 °F 52.0 °F 81% 30.09 in 10.0 mi NW 10.4 mph - N/A   Partly Cloudy
9:53 PM 54.0 °F 50.0 °F 86% 30.10 in 10.0 mi North 3.5 mph - N/A   Clear
10:53 PM 54.0 °F 50.0 °F 86% 30.11 in 10.0 mi NNW 3.5 mph - N/A   Clear
11:53 PM 53.1 °F 50.0 °F 89% 30.10 in 10.0 mi East 4.6 mph - N/A   Clear